TimeGMT,TemperatureF,Dew PointF,Humidity,Sea Level PressureIn,VisibilityMPH,Wind Direction,Wind SpeedMPH,Gust SpeedMPH,PrecipitationIn,Events,Conditions,WindDirDegrees,DateUTC
12:50 AM,39.2,33.8,81,30.12,3.1,SE,9.2,-,N/A,,Unknown,130,2013-02-18 00:50:00
1:50 AM,37.4,33.8,87,30.09,3.1,ESE,5.8,-,N/A,,Partly Cloudy,120,2013-02-18 01:50:00
2:50 AM,36,33,86,30.12,3,ESE,5.8,,,,Scattered Clouds,110,2013-02-18 02:50:00
2:50 AM,35.6,33.8,93,30.09,3.1,ESE,5.8,-,N/A,,Partly Cloudy,110,2013-02-18 02:50:00
3:50 AM,35.6,32.0,87,30.09,3.7,ESE,5.8,-,N/A,,Unknown,110,2013-02-18 03:50:00
4:50 AM,33.8,32.0,93,30.09,3.1,East,5.8,-,N/A,,Unknown,90,2013-02-18 04:50:00
5:50 AM,35,32,84,30.12,2,East,6.9,,,,Haze,80,2013-02-18 05:50:00
5:50 AM,35.6,32.0,87,30.09,2.5,East,6.9,-,N/A,,Haze,80,2013-02-18 05:50:00
6:50 AM,35.6,32.0,87,30.09,2.2,East,6.9,-,N/A,,Haze,90,2013-02-18 06:50:00
7:50 AM,33.8,32.0,93,30.12,2.2,East,5.8,-,N/A,,Haze,80,2013-02-18 07:50:00
8:50 AM,38,35,82,30.15,2,East,6.9,,,,Haze,100,2013-02-18 08:50:00
8:50 AM,39.2,33.8,81,30.12,-9999.0,East,6.9,-,N/A,,Haze,100,2013-02-18 08:50:00
9:50 AM,41.0,33.8,76,30.12,3.1,East,10.4,-,N/A,,Haze,100,2013-02-18 09:50:00
10:50 AM,44.6,32.0,61,30.12,5.6,East,10.4,-,N/A,,Haze,100,2013-02-18 10:50:00
11:50 AM,45,32,49,30.15,7,ESE,10.4,,,,Scattered Clouds,120,2013-02-18 11:50:00
11:50 AM,44.6,32.0,61,30.12,6.2,ESE,10.4,-,N/A,,Mostly Cloudy,120,2013-02-18 11:50:00
12:50 PM,46.4,32.0,57,30.12,6.2,ESE,9.2,-,N/A,,Mostly Cloudy,120,2013-02-18 12:50:00
1:50 PM,48.2,32.0,54,30.09,6.2,ESE,9.2,-,N/A,,Mostly Cloudy,110,2013-02-18 13:50:00
2:50 PM,48,31,40,30.12,11,ESE,6.9,,,,Clear,120,2013-02-18 14:50:00
2:50 PM,48.2,32.0,54,30.09,-9999.0,ESE,6.9,-,N/A,,Clear,120,2013-02-18 14:50:00
3:50 PM,46.4,32.0,57,30.09,-9999.0,ESE,8.1,-,N/A,,Clear,110,2013-02-18 15:50:00
4:50 PM,44.6,32.0,61,30.09,-9999.0,East,6.9,-,N/A,,Clear,100,2013-02-18 16:50:00
5:50 PM,42,33,59,30.13,9,East,5.8,,,,Clear,90,2013-02-18 17:50:00
5:50 PM,42.8,32.0,66,30.12,-9999.0,East,5.8,-,N/A,,Clear,90,2013-02-18 17:50:00
6:50 PM,41.0,32.0,70,30.12,-9999.0,East,6.9,-,N/A,,Clear,100,2013-02-18 18:50:00
7:50 PM,39.2,30.2,70,30.12,-9999.0,East,5.8,-,N/A,,Clear,100,2013-02-18 19:50:00
8:50 PM,35,31,79,30.16,7,East,3.5,,,,Clear,80,2013-02-18 20:50:00
8:50 PM,35.6,30.2,81,30.15,-9999.0,East,3.5,-,N/A,,Clear,80,2013-02-18 20:50:00
9:50 PM,33.8,30.2,87,30.15,-9999.0,ENE,2.3,-,N/A,,Clear,70,2013-02-18 21:50:00
10:50 PM,30.2,28.4,93,30.12,5.6,East,2.3,-,N/A,,Haze,100,2013-02-18 22:50:00
11:50 PM,30,28,87,30.15,4,ENE,2.3,,,,,70,2013-02-18 23:50:00
11:50 PM,30.2,28.4,93,30.12,4.3,ENE,2.3,-,N/A,,Unknown,70,2013-02-18 23:50:00